Year,Month,Day,Hour,Minute,Value (Times are PST for temperature in C)
2016,04,17,00,00,8.50
2016,04,17,00,01,8.50
2016,04,17,00,02,8.40
2016,04,17,00,03,8.40
2016,04,17,00,04,8.40
2016,04,17,00,05,8.40
2016,04,17,00,06,8.40
2016,04,17,00,07,8.40
2016,04,17,00,08,8.40
2016,04,17,00,09,8.40
2016,04,17,00,10,8.40
2016,04,17,00,11,8.30
2016,04,17,00,12,8.30
2016,04,17,00,13,8.30
2016,04,17,00,14,8.30
2016,04,17,00,15,8.30
2016,04,17,00,16,8.20
2016,04,17,00,17,8.20
2016,04,17,00,18,8.20
2016,04,17,00,19,8.20
2016,04,17,00,20,8.20
2016,04,17,00,21,8.20
2016,04,17,00,22,8.20
2016,04,17,00,23,8.20
2016,04,17,00,24,8.20
2016,04,17,00,25,8.20
2016,04,17,00,26,8.20
2016,04,17,00,27,8.10
2016,04,17,00,28,8.10
2016,04,17,00,29,8.10
2016,04,17,00,30,8.10
2016,04,17,00,31,8.10
2016,04,17,00,32,8.10
2016,04,17,00,33,8.10
2016,04,17,00,34,8.10
2016,04,17,00,35,8.10
2016,04,17,00,36,8.10
2016,04,17,00,37,8.10
2016,04,17,00,38,8.10
2016,04,17,00,39,8.10
2016,04,17,00,40,8.10
2016,04,17,00,41,8.10
2016,04,17,00,42,8.10
2016,04,17,00,43,8.10
2016,04,17,00,44,8.00
2016,04,17,00,45,8.00
2016,04,17,00,46,8.00
2016,04,17,00,47,7.90
2016,04,17,00,48,7.90
2016,04,17,00,49,7.90
2016,04,17,00,50,7.90
2016,04,17,00,51,7.90
2016,04,17,00,52,7.90
2016,04,17,00,53,7.90
2016,04,17,00,54,7.90
2016,04,17,00,55,7.80
2016,04,17,00,56,7.80
2016,04,17,00,57,7.80
2016,04,17,00,58,7.80
2016,04,17,00,59,7.80
2016,04,17,01,00,7.80
2016,04,17,01,01,7.80
2016,04,17,01,02,7.80
2016,04,17,01,03,7.70
2016,04,17,01,04,7.70
2016,04,17,01,05,7.70
2016,04,17,01,06,7.70
2016,04,17,01,07,7.70
2016,04,17,01,08,7.70
2016,04,17,01,09,7.70
2016,04,17,01,10,7.70
2016,04,17,01,11,7.70
2016,04,17,01,12,7.70
2016,04,17,01,13,7.70
2016,04,17,01,14,7.70
2016,04,17,01,15,7.60
2016,04,17,01,16,7.60
2016,04,17,01,17,7.60
2016,04,17,01,18,7.60
2016,04,17,01,19,7.60
2016,04,17,01,20,7.60
2016,04,17,01,21,7.60
2016,04,17,01,22,7.60
2016,04,17,01,23,7.60
2016,04,17,01,24,7.60
2016,04,17,01,25,7.60
2016,04,17,01,26,7.60
2016,04,17,01,27,7.60
2016,04,17,01,28,7.60
2016,04,17,01,29,7.60
2016,04,17,01,30,7.60
2016,04,17,01,31,7.60
2016,04,17,01,32,7.60
2016,04,17,01,33,7.60
2016,04,17,01,34,7.60
2016,04,17,01,35,7.60
2016,04,17,01,36,7.60
2016,04,17,01,37,7.60
2016,04,17,01,38,7.60
2016,04,17,01,39,7.60
2016,04,17,01,40,7.50
2016,04,17,01,41,7.50
2016,04,17,01,42,7.50
2016,04,17,01,43,7.50
2016,04,17,01,44,7.40
2016,04,17,01,45,7.40
2016,04,17,01,46,7.40
2016,04,17,01,47,7.40
2016,04,17,01,48,7.40
2016,04,17,01,49,7.40
2016,04,17,01,50,7.40
2016,04,17,01,51,7.40
2016,04,17,01,52,7.40
2016,04,17,01,53,7.40
2016,04,17,01,54,7.40
2016,04,17,01,55,7.40
2016,04,17,01,56,7.40
2016,04,17,01,57,7.30
2016,04,17,01,58,7.30
2016,04,17,01,59,7.30
2016,04,17,02,00,7.30
2016,04,17,02,01,7.30
2016,04,17,02,02,7.30
2016,04,17,02,03,7.30
2016,04,17,02,04,7.30
2016,04,17,02,05,7.20
2016,04,17,02,06,7.20
2016,04,17,02,07,7.20
2016,04,17,02,08,7.20
2016,04,17,02,09,7.20
2016,04,17,02,10,7.20
2016,04,17,02,11,7.20
2016,04,17,02,12,7.20
2016,04,17,02,13,7.20
2016,04,17,02,14,7.20
2016,04,17,02,15,7.20
2016,04,17,02,16,7.20
2016,04,17,02,17,7.10
2016,04,17,02,18,7.10
2016,04,17,02,19,7.10
2016,04,17,02,20,7.10
2016,04,17,02,21,7.10
2016,04,17,02,22,7.10
2016,04,17,02,23,7.10
2016,04,17,02,24,7.10
2016,04,17,02,25,7.10
2016,04,17,02,26,7.10
2016,04,17,02,27,7.10
2016,04,17,02,28,7.10
2016,04,17,02,29,7.10
2016,04,17,02,30,7.10
2016,04,17,02,31,7.10
2016,04,17,02,32,7.10
2016,04,17,02,33,7.00
2016,04,17,02,34,7.00
2016,04,17,02,35,7.00
2016,04,17,02,36,7.00
2016,04,17,02,37,7.00
2016,04,17,02,38,7.00
2016,04,17,02,39,7.00
2016,04,17,02,40,7.00
2016,04,17,02,41,6.90
2016,04,17,02,42,6.90
2016,04,17,02,43,6.90
2016,04,17,02,44,6.90
2016,04,17,02,45,6.90
2016,04,17,02,46,6.90
2016,04,17,02,47,6.90
2016,04,17,02,48,6.90
2016,04,17,02,49,6.80
2016,04,17,02,50,6.80
2016,04,17,02,51,6.80
2016,04,17,02,52,6.80
2016,04,17,02,53,6.80
2016,04,17,02,54,6.80
2016,04,17,02,55,6.80
2016,04,17,02,56,6.80
2016,04,17,02,57,6.80
2016,04,17,02,58,6.70
2016,04,17,02,59,6.70
2016,04,17,03,00,6.70
2016,04,17,03,01,6.70
2016,04,17,03,02,6.70
2016,04,17,03,03,6.70
2016,04,17,03,04,6.70
2016,04,17,03,05,6.70
2016,04,17,03,06,6.70
2016,04,17,03,07,6.70
2016,04,17,03,08,6.70
2016,04,17,03,09,6.70
2016,04,17,03,10,6.70
2016,04,17,03,11,6.60
2016,04,17,03,12,6.60
2016,04,17,03,13,6.60
2016,04,17,03,14,6.60
2016,04,17,03,15,6.60
2016,04,17,03,16,6.60
2016,04,17,03,17,6.60
2016,04,17,03,18,6.60
2016,04,17,03,19,6.60
2016,04,17,03,20,6.60
2016,04,17,03,21,6.60
2016,04,17,03,22,6.60
2016,04,17,03,23,6.60
2016,04,17,03,24,6.60
2016,04,17,03,25,6.60
2016,04,17,03,26,6.60
2016,04,17,03,27,6.60
2016,04,17,03,28,6.60
2016,04,17,03,29,6.60
2016,04,17,03,30,6.60
2016,04,17,03,31,6.60
2016,04,17,03,32,6.60
2016,04,17,03,33,6.60
2016,04,17,03,34,6.60
2016,04,17,03,35,6.60
2016,04,17,03,36,6.60
2016,04,17,03,37,6.60
2016,04,17,03,38,6.60
2016,04,17,03,39,6.50
2016,04,17,03,40,6.50
2016,04,17,03,41,6.50
2016,04,17,03,42,6.50
2016,04,17,03,43,6.50
2016,04,17,03,44,6.50
2016,04,17,03,45,6.50
2016,04,17,03,46,6.50
2016,04,17,03,47,6.50
2016,04,17,03,48,6.40
2016,04,17,03,49,6.40
2016,04,17,03,50,6.40
2016,04,17,03,51,6.40
2016,04,17,03,52,6.40
2016,04,17,03,53,6.40
2016,04,17,03,54,6.30
2016,04,17,03,55,6.30
2016,04,17,03,56,6.30
2016,04,17,03,57,6.30
2016,04,17,03,58,6.40
2016,04,17,03,59,6.40
2016,04,17,04,00,6.40
2016,04,17,04,01,6.30
2016,04,17,04,02,6.30
2016,04,17,04,03,6.30
2016,04,17,04,04,6.30
2016,04,17,04,05,6.30
2016,04,17,04,06,6.30
2016,04,17,04,07,6.30
2016,04,17,04,08,6.30
2016,04,17,04,09,6.30
2016,04,17,04,10,6.30
2016,04,17,04,11,6.30
2016,04,17,04,12,6.30
2016,04,17,04,13,6.20
2016,04,17,04,14,6.30
2016,04,17,04,15,6.30
2016,04,17,04,16,6.30
2016,04,17,04,17,6.30
2016,04,17,04,18,6.30
2016,04,17,04,19,6.30
2016,04,17,04,20,6.20
2016,04,17,04,21,6.20
2016,04,17,04,22,6.20
2016,04,17,04,23,6.20
2016,04,17,04,24,6.20
2016,04,17,04,25,6.20
2016,04,17,04,26,6.20
2016,04,17,04,27,6.20
2016,04,17,04,28,6.20
2016,04,17,04,29,6.20
2016,04,17,04,30,6.20
2016,04,17,04,31,6.20
2016,04,17,04,32,6.10
2016,04,17,04,33,6.10
2016,04,17,04,34,6.10
2016,04,17,04,35,6.10
2016,04,17,04,36,6.10
2016,04,17,04,37,6.10
2016,04,17,04,38,6.10
2016,04,17,04,39,6.10
2016,04,17,04,40,6.10
2016,04,17,04,41,6.10
2016,04,17,04,42,6.10
2016,04,17,04,43,6.10
2016,04,17,04,44,6.10
2016,04,17,04,45,6.10
2016,04,17,04,46,6.10
2016,04,17,04,47,6.10
2016,04,17,04,48,6.10
2016,04,17,04,49,6.10
2016,04,17,04,50,6.10
2016,04,17,04,51,6.10
2016,04,17,04,52,6.10
2016,04,17,04,53,6.10
2016,04,17,04,54,6.10
2016,04,17,04,55,6.10
2016,04,17,04,56,6.10
2016,04,17,04,57,6.10
2016,04,17,04,58,6.10
2016,04,17,04,59,6.10
2016,04,17,05,00,6.10
2016,04,17,05,01,6.10
2016,04,17,05,02,6.10
2016,04,17,05,03,6.10
2016,04,17,05,04,6.10
2016,04,17,05,05,6.10
2016,04,17,05,06,6.10
2016,04,17,05,07,6.10
2016,04,17,05,08,6.10
2016,04,17,05,09,6.10
2016,04,17,05,10,6.10
2016,04,17,05,11,6.10
2016,04,17,05,12,6.10
2016,04,17,05,13,6.10
2016,04,17,05,14,6.10
2016,04,17,05,15,6.10
2016,04,17,05,16,6.10
2016,04,17,05,17,6.10
2016,04,17,05,18,6.10
2016,04,17,05,19,6.10
2016,04,17,05,20,6.10
2016,04,17,05,21,6.10
2016,04,17,05,22,6.10
2016,04,17,05,23,6.20
2016,04,17,05,24,6.10
2016,04,17,05,25,6.20
2016,04,17,05,26,6.20
2016,04,17,05,27,6.20
2016,04,17,05,28,6.20
2016,04,17,05,29,6.20
2016,04,17,05,30,6.20
2016,04,17,05,31,6.20
2016,04,17,05,32,6.20
2016,04,17,05,33,6.20
2016,04,17,05,34,6.20
2016,04,17,05,35,6.20
2016,04,17,05,36,6.20
2016,04,17,05,37,6.20
2016,04,17,05,38,6.20
2016,04,17,05,39,6.20
2016,04,17,05,40,6.20
2016,04,17,05,41,6.20
2016,04,17,05,42,6.20
2016,04,17,05,43,6.20
2016,04,17,05,44,6.20
2016,04,17,05,45,6.20
2016,04,17,05,46,6.20
2016,04,17,05,47,6.20
2016,04,17,05,48,6.20
2016,04,17,05,49,6.20
2016,04,17,05,50,6.20
2016,04,17,05,51,6.20
2016,04,17,05,52,6.20
2016,04,17,05,53,6.20
2016,04,17,05,54,6.20
2016,04,17,05,55,6.20
2016,04,17,05,56,6.10
2016,04,17,05,57,6.10
2016,04,17,05,58,6.10
2016,04,17,05,59,6.10
2016,04,17,06,00,6.10
2016,04,17,06,01,6.10
2016,04,17,06,02,6.10
2016,04,17,06,03,6.10
2016,04,17,06,04,6.10
2016,04,17,06,05,6.10
2016,04,17,06,06,6.00
2016,04,17,06,07,6.00
2016,04,17,06,08,6.00
2016,04,17,06,09,5.90
2016,04,17,06,10,5.90
2016,04,17,06,11,5.90
2016,04,17,06,12,5.90
2016,04,17,06,13,5.90
2016,04,17,06,14,5.80
2016,04,17,06,15,5.90
2016,04,17,06,16,5.90
2016,04,17,06,17,5.90
2016,04,17,06,18,5.80
2016,04,17,06,19,5.80
2016,04,17,06,20,5.80
2016,04,17,06,21,5.80
2016,04,17,06,22,5.80
2016,04,17,06,23,5.80
2016,04,17,06,24,5.80
2016,04,17,06,25,5.80
2016,04,17,06,26,5.80
2016,04,17,06,27,5.80
2016,04,17,06,28,5.80
2016,04,17,06,29,5.80
2016,04,17,06,30,5.80
2016,04,17,06,31,5.80
2016,04,17,06,32,5.80
2016,04,17,06,33,5.80
2016,04,17,06,34,5.80
2016,04,17,06,35,5.80
2016,04,17,06,36,5.80
2016,04,17,06,37,5.80
2016,04,17,06,38,5.80
2016,04,17,06,39,5.80
2016,04,17,06,40,5.80
2016,04,17,06,41,5.80
2016,04,17,06,42,5.80
2016,04,17,06,43,5.80
2016,04,17,06,44,5.80
2016,04,17,06,45,5.80
2016,04,17,06,46,5.80
2016,04,17,06,47,5.90
2016,04,17,06,48,5.90
2016,04,17,06,49,5.90
2016,04,17,06,50,5.90
2016,04,17,06,51,5.90
2016,04,17,06,52,5.90
2016,04,17,06,53,5.90
2016,04,17,06,54,5.90
2016,04,17,06,55,5.90
2016,04,17,06,56,5.90
2016,04,17,06,57,5.90
2016,04,17,06,58,5.90
2016,04,17,06,59,6.00
2016,04,17,07,00,6.00
2016,04,17,07,01,6.10
2016,04,17,07,02,6.10
2016,04,17,07,03,6.10
2016,04,17,07,04,6.10
2016,04,17,07,05,6.20
2016,04,17,07,06,6.20
2016,04,17,07,07,6.20
2016,04,17,07,08,6.30
2016,04,17,07,09,6.30
2016,04,17,07,10,6.30
2016,04,17,07,11,6.40
2016,04,17,07,12,6.40
2016,04,17,07,13,6.40
2016,04,17,07,14,6.40
2016,04,17,07,15,6.50
2016,04,17,07,16,6.50
2016,04,17,07,17,6.50
2016,04,17,07,18,6.50
2016,04,17,07,19,6.50
2016,04,17,07,20,6.60
2016,04,17,07,21,6.50
2016,04,17,07,22,6.50
2016,04,17,07,23,6.50
2016,04,17,07,24,6.50
2016,04,17,07,25,6.50
2016,04,17,07,26,6.50
2016,04,17,07,27,6.60
2016,04,17,07,28,6.60
2016,04,17,07,29,6.60
2016,04,17,07,30,6.60
2016,04,17,07,31,6.60
2016,04,17,07,32,6.60
2016,04,17,07,33,6.60
2016,04,17,07,34,6.60
2016,04,17,07,35,6.60
2016,04,17,07,36,6.60
2016,04,17,07,37,6.60
2016,04,17,07,38,6.70
2016,04,17,07,39,6.70
2016,04,17,07,40,6.70
2016,04,17,07,41,6.70
2016,04,17,07,42,6.70
2016,04,17,07,43,6.70
2016,04,17,07,44,6.70
2016,04,17,07,45,6.80
2016,04,17,07,46,6.80
2016,04,17,07,47,6.80
2016,04,17,07,48,6.80
2016,04,17,07,49,6.80
2016,04,17,07,50,6.80
2016,04,17,07,51,6.90
2016,04,17,07,52,6.90
2016,04,17,07,53,6.90
2016,04,17,07,54,7.00
2016,04,17,07,55,7.00
2016,04,17,07,56,7.10
2016,04,17,07,57,7.10
2016,04,17,07,58,7.10
2016,04,17,07,59,7.20
2016,04,17,08,00,7.20
2016,04,17,08,01,7.20
2016,04,17,08,02,7.20
2016,04,17,08,03,7.30
2016,04,17,08,04,7.30
2016,04,17,08,05,7.30
2016,04,17,08,06,7.40
2016,04,17,08,07,7.40
2016,04,17,08,08,7.40
2016,04,17,08,09,7.50
2016,04,17,08,10,7.50
2016,04,17,08,11,7.60
2016,04,17,08,12,7.60
2016,04,17,08,13,7.60
2016,04,17,08,14,7.70
2016,04,17,08,15,7.70
2016,04,17,08,16,7.80
2016,04,17,08,17,7.80
2016,04,17,08,18,7.80
2016,04,17,08,19,7.80
2016,04,17,08,20,7.90
2016,04,17,08,21,7.90
2016,04,17,08,22,8.00
2016,04,17,08,23,8.00
2016,04,17,08,24,8.00
2016,04,17,08,25,8.00
2016,04,17,08,26,8.10
2016,04,17,08,27,8.10
2016,04,17,08,28,8.10
2016,04,17,08,29,8.10
2016,04,17,08,30,8.10
2016,04,17,08,31,8.20
2016,04,17,08,32,8.20
2016,04,17,08,33,8.20
2016,04,17,08,34,8.30
2016,04,17,08,35,8.30
2016,04,17,08,36,8.30
2016,04,17,08,37,8.30
2016,04,17,08,38,8.40
2016,04,17,08,39,8.40
2016,04,17,08,40,8.40
2016,04,17,08,41,8.50
2016,04,17,08,42,8.50
2016,04,17,08,43,8.50
2016,04,17,08,44,8.60
2016,04,17,08,45,8.60
2016,04,17,08,46,8.60
2016,04,17,08,47,8.60
2016,04,17,08,48,8.70
2016,04,17,08,49,8.70
2016,04,17,08,50,8.60
2016,04,17,08,51,8.60
2016,04,17,08,52,8.70
2016,04,17,08,53,8.70
2016,04,17,08,54,8.70
2016,04,17,08,55,8.70
2016,04,17,08,56,8.70
2016,04,17,08,57,8.80
2016,04,17,08,58,8.80
2016,04,17,08,59,8.90
2016,04,17,09,00,8.90
2016,04,17,09,01,9.00
2016,04,17,09,02,9.10
2016,04,17,09,03,9.10
2016,04,17,09,04,9.20
2016,04,17,09,05,9.20
2016,04,17,09,06,9.30
2016,04,17,09,07,9.30
2016,04,17,09,08,9.40
2016,04,17,09,09,9.50
2016,04,17,09,10,9.60
2016,04,17,09,11,9.60
2016,04,17,09,12,9.60
2016,04,17,09,13,9.70
2016,04,17,09,14,9.70
2016,04,17,09,15,9.80
2016,04,17,09,16,9.80
2016,04,17,09,17,9.90
2016,04,17,09,18,9.90
2016,04,17,09,19,10.00
2016,04,17,09,20,10.00
2016,04,17,09,21,10.10
2016,04,17,09,22,10.20
2016,04,17,09,23,10.20
2016,04,17,09,24,10.30
2016,04,17,09,25,10.30
2016,04,17,09,26,10.40
2016,04,17,09,27,10.40
2016,04,17,09,28,10.50
2016,04,17,09,29,10.60
2016,04,17,09,30,10.70
2016,04,17,09,31,10.70
2016,04,17,09,32,10.80
2016,04,17,09,33,10.80
2016,04,17,09,34,10.90
2016,04,17,09,35,10.90
2016,04,17,09,36,11.00
2016,04,17,09,37,11.10
2016,04,17,09,38,11.20
2016,04,17,09,39,11.20
2016,04,17,09,40,11.30
2016,04,17,09,41,11.30
2016,04,17,09,42,11.40
2016,04,17,09,43,11.50
2016,04,17,09,44,11.50
2016,04,17,09,45,11.60
2016,04,17,09,46,11.70
2016,04,17,09,47,11.70
2016,04,17,09,48,11.80
2016,04,17,09,49,11.80
2016,04,17,09,50,11.90
2016,04,17,09,51,11.90
2016,04,17,09,52,12.00
2016,04,17,09,53,12.00
2016,04,17,09,54,12.10
2016,04,17,09,55,12.10
2016,04,17,09,56,12.20
2016,04,17,09,57,12.30
2016,04,17,09,58,12.30
2016,04,17,09,59,12.40
2016,04,17,10,00,12.50
2016,04,17,10,01,12.60
2016,04,17,10,02,12.60
2016,04,17,10,03,12.70
2016,04,17,10,04,12.80
2016,04,17,10,05,12.90
2016,04,17,10,06,13.00
2016,04,17,10,07,13.10
2016,04,17,10,08,13.20
2016,04,17,10,09,13.30
2016,04,17,10,10,13.40
2016,04,17,10,11,13.40
2016,04,17,10,12,13.50
2016,04,17,10,13,13.60
2016,04,17,10,14,13.70
2016,04,17,10,15,13.80
2016,04,17,10,16,13.80
2016,04,17,10,17,13.90
2016,04,17,10,18,13.90
2016,04,17,10,19,13.90
2016,04,17,10,20,13.90
2016,04,17,10,21,14.10
2016,04,17,10,22,14.10
2016,04,17,10,23,14.20
2016,04,17,10,24,14.20
2016,04,17,10,25,14.30
2016,04,17,10,26,14.30
2016,04,17,10,27,14.30
2016,04,17,10,28,14.30
2016,04,17,10,29,14.30
2016,04,17,10,30,14.40
2016,04,17,10,31,14.40
2016,04,17,10,32,14.50
2016,04,17,10,33,14.50
2016,04,17,10,34,14.60
2016,04,17,10,35,14.70
2016,04,17,10,36,14.70
2016,04,17,10,37,14.80
2016,04,17,10,38,14.90
2016,04,17,10,39,15.00
2016,04,17,10,40,15.00
2016,04,17,10,41,15.00
2016,04,17,10,42,15.00
2016,04,17,10,43,15.00
2016,04,17,10,44,15.00
2016,04,17,10,45,15.00
2016,04,17,10,46,15.00
2016,04,17,10,47,15.00
2016,04,17,10,48,15.00
2016,04,17,10,49,15.00
2016,04,17,10,50,15.00
2016,04,17,10,51,15.00
2016,04,17,10,52,15.00
2016,04,17,10,53,15.00
2016,04,17,10,54,15.00
2016,04,17,10,55,15.00
2016,04,17,10,56,15.00
2016,04,17,10,57,15.00
2016,04,17,10,58,15.00
2016,04,17,10,59,15.00
2016,04,17,11,00,15.00
2016,04,17,11,01,15.00
2016,04,17,11,02,15.00
2016,04,17,11,03,15.00
2016,04,17,11,04,15.00
2016,04,17,11,05,15.10
2016,04,17,11,06,15.20
2016,04,17,11,07,15.30
2016,04,17,11,08,15.40
2016,04,17,11,09,15.40
2016,04,17,11,10,15.50
2016,04,17,11,11,15.60
2016,04,17,11,12,15.70
2016,04,17,11,13,15.80
2016,04,17,11,14,15.90
2016,04,17,11,15,16.00
2016,04,17,11,16,16.10
2016,04,17,11,17,16.10
2016,04,17,11,18,16.10
2016,04,17,11,19,16.10
2016,04,17,11,20,16.20
2016,04,17,11,21,16.20
2016,04,17,11,22,16.20
2016,04,17,11,23,16.20
2016,04,17,11,24,16.30
2016,04,17,11,25,16.30
2016,04,17,11,26,16.40
2016,04,17,11,27,16.50
2016,04,17,11,28,16.60
2016,04,17,11,29,16.70
2016,04,17,11,30,16.80
2016,04,17,11,31,16.80
2016,04,17,11,32,16.90
2016,04,17,11,33,17.00
2016,04,17,11,34,17.10
2016,04,17,11,35,17.10
2016,04,17,11,36,17.10
2016,04,17,11,37,17.00
2016,04,17,11,38,16.90
2016,04,17,11,39,16.90
2016,04,17,11,40,16.80
2016,04,17,11,41,16.80
2016,04,17,11,42,16.80
2016,04,17,11,43,16.80
2016,04,17,11,44,16.80
2016,04,17,11,45,16.80
2016,04,17,11,46,16.80
2016,04,17,11,47,16.80
2016,04,17,11,48,16.80
2016,04,17,11,49,16.90
2016,04,17,11,50,16.90
2016,04,17,11,51,17.00
2016,04,17,11,52,17.10
2016,04,17,11,53,17.20
2016,04,17,11,54,17.20
2016,04,17,11,55,17.20
2016,04,17,11,56,17.30
2016,04,17,11,57,17.30
2016,04,17,11,58,17.30
2016,04,17,11,59,17.30
2016,04,17,12,00,17.30
2016,04,17,12,01,17.30
2016,04,17,12,02,17.40
2016,04,17,12,03,17.40
2016,04,17,12,04,17.40
2016,04,17,12,05,17.50
2016,04,17,12,06,17.50
2016,04,17,12,07,17.60
2016,04,17,12,08,17.60
2016,04,17,12,09,17.60
2016,04,17,12,10,17.60
2016,04,17,12,11,17.60
2016,04,17,12,12,17.70
2016,04,17,12,13,17.70
2016,04,17,12,14,17.80
2016,04,17,12,15,17.80
2016,04,17,12,16,17.90
2016,04,17,12,17,17.90
2016,04,17,12,18,17.90
2016,04,17,12,19,17.90
2016,04,17,12,20,17.90
2016,04,17,12,21,17.90
2016,04,17,12,22,17.90
2016,04,17,12,23,17.90
2016,04,17,12,24,18.00
2016,04,17,12,25,18.00
2016,04,17,12,26,18.10
2016,04,17,12,27,18.20
2016,04,17,12,28,18.20
2016,04,17,12,29,18.30
2016,04,17,12,30,18.40
2016,04,17,12,31,18.40
2016,04,17,12,32,18.40
2016,04,17,12,33,18.40
2016,04,17,12,34,18.50
2016,04,17,12,35,18.50
2016,04,17,12,36,18.60
2016,04,17,12,37,18.60
2016,04,17,12,38,18.60
2016,04,17,12,39,18.60
2016,04,17,12,40,18.60
2016,04,17,12,41,18.50
2016,04,17,12,42,18.50
2016,04,17,12,43,18.40
2016,04,17,12,44,18.50
2016,04,17,12,45,18.50
2016,04,17,12,46,18.60
2016,04,17,12,47,18.70
2016,04,17,12,48,18.70
2016,04,17,12,49,18.80
2016,04,17,12,50,18.80
2016,04,17,12,51,18.80
2016,04,17,12,52,18.80
2016,04,17,12,53,18.80
2016,04,17,12,54,18.70
2016,04,17,12,55,18.70
2016,04,17,12,56,18.70
2016,04,17,12,57,18.70
2016,04,17,12,58,18.70
2016,04,17,12,59,18.70
2016,04,17,13,00,18.60
2016,04,17,13,01,18.60
2016,04,17,13,02,18.50
2016,04,17,13,03,18.50
2016,04,17,13,04,18.40
2016,04,17,13,05,18.40
2016,04,17,13,06,18.40
2016,04,17,13,07,18.40
2016,04,17,13,08,18.30
2016,04,17,13,09,18.30
2016,04,17,13,10,18.30
2016,04,17,13,11,18.40
2016,04,17,13,12,18.50
2016,04,17,13,13,18.60
2016,04,17,13,14,18.70
2016,04,17,13,15,18.80
2016,04,17,13,16,18.90
2016,04,17,13,17,19.00
2016,04,17,13,18,19.10
2016,04,17,13,19,19.20
2016,04,17,13,20,19.20
2016,04,17,13,21,19.30
2016,04,17,13,22,19.30
2016,04,17,13,23,19.40
2016,04,17,13,24,19.40
2016,04,17,13,25,19.40
2016,04,17,13,26,19.40
2016,04,17,13,27,19.30
2016,04,17,13,28,19.30
2016,04,17,13,29,19.40
2016,04,17,13,30,19.40
2016,04,17,13,31,19.40
2016,04,17,13,32,19.50
2016,04,17,13,33,19.50
2016,04,17,13,34,19.60
2016,04,17,13,35,19.60
2016,04,17,13,36,19.60
2016,04,17,13,37,19.60
2016,04,17,13,38,19.60
2016,04,17,13,39,19.70
2016,04,17,13,40,19.70
2016,04,17,13,41,19.80
2016,04,17,13,42,19.80
2016,04,17,13,43,19.80
2016,04,17,13,44,19.90
2016,04,17,13,45,19.90
2016,04,17,13,46,19.80
2016,04,17,13,47,19.80
2016,04,17,13,48,19.80
2016,04,17,13,49,19.70
2016,04,17,13,50,19.60
2016,04,17,13,51,19.40
2016,04,17,13,52,19.40
2016,04,17,13,53,19.30
2016,04,17,13,54,19.40
2016,04,17,13,55,19.40
2016,04,17,13,56,19.50
2016,04,17,13,57,19.50
2016,04,17,13,58,19.60
2016,04,17,13,59,19.70
2016,04,17,14,00,19.80
2016,04,17,14,01,19.90
2016,04,17,14,02,20.00
2016,04,17,14,03,20.10
2016,04,17,14,04,20.10
2016,04,17,14,05,20.00
2016,04,17,14,06,20.00
2016,04,17,14,07,19.90
2016,04,17,14,08,19.80
2016,04,17,14,09,19.80
2016,04,17,14,10,19.80
2016,04,17,14,11,19.80
2016,04,17,14,12,19.80
2016,04,17,14,13,19.90
2016,04,17,14,14,19.90
2016,04,17,14,15,20.00
2016,04,17,14,16,20.10
2016,04,17,14,17,20.20
2016,04,17,14,18,20.20
2016,04,17,14,19,20.30
2016,04,17,14,20,20.30
2016,04,17,14,21,20.20
2016,04,17,14,22,20.10
2016,04,17,14,23,20.10
2016,04,17,14,24,20.10
2016,04,17,14,25,20.20
2016,04,17,14,26,20.20
2016,04,17,14,27,20.30
2016,04,17,14,28,20.30
2016,04,17,14,29,20.30
2016,04,17,14,30,20.40
2016,04,17,14,31,20.40
2016,04,17,14,32,20.40
2016,04,17,14,33,20.50
2016,04,17,14,34,20.50
2016,04,17,14,35,20.50
2016,04,17,14,36,20.50
2016,04,17,14,37,20.50
2016,04,17,14,38,20.60
2016,04,17,14,39,20.70
2016,04,17,14,40,20.80
2016,04,17,14,41,21.00
2016,04,17,14,42,21.10
2016,04,17,14,43,21.10
2016,04,17,14,44,21.20
2016,04,17,14,45,21.30
2016,04,17,14,46,21.30
2016,04,17,14,47,21.40
2016,04,17,14,48,21.50
2016,04,17,14,49,21.60
2016,04,17,14,50,21.70
2016,04,17,14,51,21.80
2016,04,17,14,52,21.90
2016,04,17,14,53,21.90
2016,04,17,14,54,22.00
2016,04,17,14,55,22.10
2016,04,17,14,56,22.10
2016,04,17,14,57,22.10
2016,04,17,14,58,22.10
2016,04,17,14,59,22.10
2016,04,17,15,00,22.10
2016,04,17,15,01,22.10
2016,04,17,15,02,22.20
2016,04,17,15,03,22.20
2016,04,17,15,04,22.30
2016,04,17,15,05,22.30
2016,04,17,15,06,22.30
2016,04,17,15,07,22.30
2016,04,17,15,08,22.20
2016,04,17,15,09,22.20
2016,04,17,15,10,22.20
2016,04,17,15,11,22.20
2016,04,17,15,12,22.20
2016,04,17,15,13,22.20
2016,04,17,15,14,22.20
2016,04,17,15,15,22.20
2016,04,17,15,16,22.10
2016,04,17,15,17,22.10
2016,04,17,15,18,22.10
2016,04,17,15,19,22.10
2016,04,17,15,20,22.10
2016,04,17,15,21,22.20
2016,04,17,15,22,22.20
2016,04,17,15,23,22.20
2016,04,17,15,24,22.20
2016,04,17,15,25,22.20
2016,04,17,15,26,22.20
2016,04,17,15,27,22.20
2016,04,17,15,28,22.20
2016,04,17,15,29,22.30
2016,04,17,15,30,22.40
2016,04,17,15,31,22.50
2016,04,17,15,32,22.60
2016,04,17,15,33,22.70
2016,04,17,15,34,22.70
2016,04,17,15,35,22.80
2016,04,17,15,36,22.90
2016,04,17,15,37,22.90
2016,04,17,15,38,22.90
2016,04,17,15,39,22.80
2016,04,17,15,40,22.80
2016,04,17,15,41,22.70
2016,04,17,15,42,22.70
2016,04,17,15,43,22.70
2016,04,17,15,44,22.80
2016,04,17,15,45,22.80
2016,04,17,15,46,22.90
2016,04,17,15,47,23.00
2016,04,17,15,48,23.10
2016,04,17,15,49,23.20
2016,04,17,15,50,23.30
2016,04,17,15,51,23.40
2016,04,17,15,52,23.40
2016,04,17,15,53,23.50
2016,04,17,15,54,23.50
2016,04,17,15,55,23.60
2016,04,17,15,56,23.60
2016,04,17,15,57,23.50
2016,04,17,15,58,23.40
2016,04,17,15,59,23.30
2016,04,17,16,00,23.20
2016,04,17,16,01,23.10
2016,04,17,16,02,23.10
2016,04,17,16,03,23.10
2016,04,17,16,04,23.10
2016,04,17,16,05,23.10
2016,04,17,16,06,23.20
2016,04,17,16,07,23.10
2016,04,17,16,08,23.10
2016,04,17,16,09,23.10
2016,04,17,16,10,23.10
2016,04,17,16,11,23.10
2016,04,17,16,12,23.00
2016,04,17,16,13,23.00
2016,04,17,16,14,23.10
2016,04,17,16,15,23.10
2016,04,17,16,16,23.20
2016,04,17,16,17,23.20
2016,04,17,16,18,23.30
2016,04,17,16,19,23.30
2016,04,17,16,20,23.30
2016,04,17,16,21,23.30
2016,04,17,16,22,23.20
2016,04,17,16,23,23.20
2016,04,17,16,24,23.20
2016,04,17,16,25,23.20
2016,04,17,16,26,23.20
2016,04,17,16,27,23.20
2016,04,17,16,28,23.20
2016,04,17,16,29,23.10
2016,04,17,16,30,23.10
2016,04,17,16,31,23.10
2016,04,17,16,32,23.00
2016,04,17,16,33,23.00
2016,04,17,16,34,22.90
2016,04,17,16,35,22.90
2016,04,17,16,36,22.90
2016,04,17,16,37,22.90
2016,04,17,16,38,22.90
2016,04,17,16,39,22.80
2016,04,17,16,40,22.80
2016,04,17,16,41,22.80
2016,04,17,16,42,22.80
2016,04,17,16,43,22.80
2016,04,17,16,44,22.80
2016,04,17,16,45,22.70
2016,04,17,16,46,22.70
2016,04,17,16,47,22.70
2016,04,17,16,48,22.70
2016,04,17,16,49,22.70
2016,04,17,16,50,22.70
2016,04,17,16,51,22.70
2016,04,17,16,52,22.60
2016,04,17,16,53,22.70
2016,04,17,16,54,22.70
2016,04,17,16,55,22.70
2016,04,17,16,56,22.70
2016,04,17,16,57,22.70
2016,04,17,16,58,22.70
2016,04,17,16,59,22.70
2016,04,17,17,00,22.70
2016,04,17,17,01,22.80
2016,04,17,17,02,22.80
2016,04,17,17,03,22.80
2016,04,17,17,04,22.80
2016,04,17,17,05,22.80
2016,04,17,17,06,22.80
2016,04,17,17,07,22.80
2016,04,17,17,08,22.70
2016,04,17,17,09,22.70
2016,04,17,17,10,22.70
2016,04,17,17,11,22.70
2016,04,17,17,12,22.70
2016,04,17,17,13,22.60
2016,04,17,17,14,22.60
2016,04,17,17,15,22.50
2016,04,17,17,16,22.50
2016,04,17,17,17,22.40
2016,04,17,17,18,22.40
2016,04,17,17,19,22.30
2016,04,17,17,20,22.30
2016,04,17,17,21,22.30
2016,04,17,17,22,22.30
2016,04,17,17,23,22.30
2016,04,17,17,24,22.30
2016,04,17,17,25,22.40
2016,04,17,17,26,22.40
2016,04,17,17,27,22.40
2016,04,17,17,28,22.40
2016,04,17,17,29,22.40
2016,04,17,17,30,22.40
2016,04,17,17,31,22.40
2016,04,17,17,32,22.30
2016,04,17,17,33,22.30
2016,04,17,17,34,22.30
2016,04,17,17,35,22.30
2016,04,17,17,36,22.30
2016,04,17,17,37,22.20
2016,04,17,17,38,22.20
2016,04,17,17,39,22.10
2016,04,17,17,40,21.90
2016,04,17,17,41,21.80
2016,04,17,17,42,21.60
2016,04,17,17,43,21.50